Regional Weather Roundup
Issued by NWS

Home | Current Version | Previous Version | Graphics & Text | Print | Product List | Glossary On
Versions: 1 2 3 4 5 6 7 8 9 10 11 12 13 14 15 16 17 18 19 20 21 22 23 24 25 26 27 28 29 30 31 32 33 34 35 36 37 38 39 40 41 42 43 44 45 46 47 48 49 50
128
ASUS44 KJAN 280510
RWRMS

MISSISSIPPI HOURLY WEATHER ROUNDUP
NATIONAL WEATHER SERVICE JACKSON MS
1200 AM CDT SAT MAR 28 2015

NOTE: "FAIR: INDICATES FEW OR NO CLOUDS BELOW 12,000 FEET WITH NO
SIGNIFICANT WEATHER AND/OR OBSTRUCTIONS TO VISIBILITY.

MSZ001>002-007>008-010>013-018>021-025>028-034>036-280600-
NORTHWEST MISSISSIPPI

CITY           SKY/WX    TMP DP  RH WIND       PRES   REMARKS
CLARKSDALE     MOCLDY    41  36  81 NE9       30.21R
CLEVELAND      FAIR      43  39  84 NE6       30.18S
GREENWOOD      CLOUDY    42  36  79 CALM      30.19R
GREENVILLE     CLEAR     43  37  79 NE3       30.18R
OLIVE BRANCH   CLEAR     36  28  75 NE5       30.20S WCI  32
OXFORD         FAIR      32  28  86 NE3       30.21R
TUNICA         CLEAR     37  32  81 NE7       30.22R WCI  32
$$

MSZ003>006-009-014>017-022>024-029>033-037>039-280600-
NORTHEAST MISSISSIPPI

CITY           SKY/WX    TMP DP  RH WIND       PRES   REMARKS
COLUMBUS AFB   FAIR      40  33  78 N8        30.17R WCI  34
CORINTH        FAIR      36  27  69 NW5       30.18R WCI  32
GOLDN TRIANGLE CLEAR     39  34  81 N6        30.16S WCI  35
STARKVILLE     FAIR      37  36  93 CALM      30.18R
TUPELO         CLEAR     36  28  73 NE8       30.18R WCI  30
$$

MSZ040-058-280600-
CENTRAL MISSISSIPPI

CITY           SKY/WX    TMP DP  RH WIND       PRES   REMARKS
JACKSON INTL   PTCLDY    46  35  65 NE7       30.17S
JACKSON HAWKNS PTCLDY    46  35  65 NE5       30.18R
MERIDIAN KEY   PTCLDY    43  35  73 N9        30.17R
MERIDIAN NAS   NOT AVBL
RAYMOND        FAIR      45  41  87 CALM      30.17S
VICKSBURG      LGT RAIN  48  38  68 NE9       30.19R
$$

MSZ059>079-280600-
SOUTH MISSISSIPPI

CITY           SKY/WX    TMP DP  RH WIND       PRES   REMARKS
BROOKHAVEN       N/A     43  41  93 CALM      30.18R
HATTIESBURG    CLEAR     49  37  63 N5        30.18R
MCCOMB         CLEAR     49  38  65 N5        30.16R
NATCHEZ        CLEAR     48  36  61 CALM      30.18R
PINE BELT      CLEAR     46  34  61 CALM      30.17S
$$

MSZ080>082-280600-
COASTAL MISSISSIPPI

CITY           SKY/WX    TMP DP  RH WIND       PRES   REMARKS
BILOXI         CLEAR     53  36  52 N9        30.14R
PASCAGOULA     CLEAR     49  38  65 N6        30.15R
GULFPORT       CLEAR     53  35  50 N6        30.14R
$$



USA.gov is the U.S. government's official web portal to all federal, state and local government web resources and services.